Location: Unspecified
(0.0000°N, 0.0000°E)
Time: 13:46:27
(UTC+02:00)

Cosmos 1072 Rocket - Visible Passes

Search period start: 19 September 2014 00:00
Search period end: 29 September 2014 00:00
Orbit: 950 x 1008 km, 82.9° (Epoch: 17 September)

Date Brightness Start Highest point End Pass type
(mag) Time Alt. Az. Time Alt. Az. Time Alt. Az.
19 Sep 4.4 21:23:29 10° N 21:29:52 85° E 21:36:11 10° S visible
20 Sep 5.6 21:50:14 10° NNW 21:56:13 44° W 22:02:10 10° SSW visible
21 Sep 5.1 20:31:49 10° NNE 20:37:26 33° E 20:43:00 10° SSE visible
21 Sep 6.8 22:18:12 10° NW 22:22:33 20° W 22:26:55 10° SW visible
22 Sep 4.4 20:57:28 10° N 21:03:48 75° E 21:10:05 10° S visible
23 Sep 5.4 21:24:03 10° NNW 21:30:09 50° W 21:36:12 10° SSW visible
24 Sep 6.8 21:51:46 10° NW 21:56:30 22° W 22:01:13 10° SW visible
25 Sep 4.5 20:31:28 10° N 20:37:44 66° E 20:43:57 10° SSE visible
26 Sep 5.2 20:57:55 10° NNW 21:04:05 57° W 21:10:13 10° S visible
27 Sep 6.7 21:25:24 10° NW 21:30:26 25° W 21:35:27 10° SSW visible
28 Sep 4.6 20:05:29 10° N 20:11:40 57° E 20:17:47 10° SSE visible
28 Sep 7.7 21:56:45 10° W 21:56:47 10° W 21:56:48 10° W visible
